Zurück zum Katalog

STARLINK-38100

AktivKommunikationSSO
NORAD 100149·PAYLOAD·🇺🇸 United States

Gestartet Jul 25, 2026 von Vandenberg Space Force Base

Loading…

Nächste Überflüge (nächste 24 Stunden)

TLE

AktuellSource: Space-Track

Epoche: Sep 14, 2026, 08:54 UTC

1 A0149U 26171B   26257.37146328  .00007148  00000-0  22353-3 0  9995
2 A0149  97.2836 290.0078 0001573  89.4611 270.6812 15.33445987  9208

Verfolge STARLINK-38100 in Echtzeit mit AllMySat

Download on the App Store